Theta_e
322 322 322 323 323 322 321 320 320 319 317 316 314 313 311 308 306 304 303 302 300 299 297 296 295 294 294 293 293 292 292 292 292 291 291 291 291 291 290 290 290 290 289 289 289 288 288 288 288 287 287 287 287 287 287 287 287 287 287 287 288 288 290 291 292 292 291 289 289 289 289 289 289 289 289 289 289 289 289 289 289 289 289 289 289
321 321 321 321 321 320 319 318 317 316 314 313 312 310 307 305 303 302 301 299 298 296 295 294 294 293 293 292 292 292 292 291 291 291 291 291 291 290 290 290 289 289 289 288 288 288 288 287 287 287 287 287 287 287 287 286 286 286 286 286 287 287 288 289 290 290 290 289 288 289 288 289 289 289 289 289 289 289 289 289 289 289 289 289 289
319 320 319 319 319 318 317 316 315 314 312 311 309 306 304 303 302 300 298 296 295 294 294 293 293 292 292 292 292 291 291 291 291 291 290 290 290 290 289 289 289 288 288 288 288 287 287 287 287 287 287 287 287 286 286 286 286 286 286 286 286 286 287 287 288 289 289 289 288 288 288 288 288 288 288 288 288 288 288 288 288 288 288 288 288
317 317 317 316 316 315 314 313 312 311 310 308 306 304 302 301 299 297 295 294 294 293 293 292 292 292 292 292 291 291 291 291 290 290 290 289 289 289 288 288 288 288 287 287 287 287 287 287 287 286 286 286 286 286 286 285 285 285 285 285 285 286 286 286 287 287 288 288 287 287 287 287 287 287 287 288 288 288 288 288 288 288 288 288 288
314 314 313 313 313 313 312 311 310 309 307 305 303 302 300 298 296 295 294 293 293 292 292 292 291 291 291 291 291 290 290 290 290 290 289 289 289 288 288 288 288 287 287 287 286 286 286 286 286 286 286 285 286 285 285 285 285 285 285 285 285 285 285 286 286 286 287 287 287 287 286 287 287 287 287 287 288 288 288 288 288 288 288 287 287
311 311 311 311 310 310 309 309 308 306 304 302 301 299 297 295 294 293 293 293 292 292 292 291 291 291 291 290 290 290 290 289 289 289 289 288 288 288 288 288 287 287 287 287 286 286 286 286 285 285 285 285 285 284 284 284 284 284 284 284 285 285 285 285 286 286 286 286 286 286 286 286 287 287 287 287 288 288 288 288 287 287 286 286 286
309 309 309 309 308 308 307 306 305 303 302 300 299 296 294 294 293 292 292 292 292 291 291 291 291 291 290 290 289 289 289 289 289 288 288 288 288 287 287 287 287 287 287 286 286 286 285 285 285 284 284 284 284 284 284 284 284 284 284 284 284 285 285 285 285 285 285 286 286 286 287 286 287 287 287 286 287 287 287 287 287 286 286 286 287
307 307 307 307 306 305 304 303 302 301 300 298 296 294 293 292 292 292 292 291 291 291 291 291 290 290 289 289 289 289 289 288 288 288 288 288 287 287 287 287 287 286 286 286 286 286 285 285 284 284 284 284 283 283 283 283 284 284 284 284 284 284 284 285 285 285 285 286 286 286 287 287 287 287 286 286 287 286 286 286 286 286 286 287 287
305 305 305 305 304 303 302 301 300 299 297 295 293 293 292 292 291 291 291 291 291 291 290 290 289 289 289 289 288 288 288 288 288 288 287 287 287 287 287 286 286 286 286 286 286 285 285 284 284 284 284 283 283 283 283 283 283 283 284 284 284 284 284 285 285 285 285 286 286 286 286 286 286 286 286 286 286 286 285 285 286 286 286 287 287
304 303 303 302 301 301 300 299 298 296 294 293 292 292 291 291 291 291 291 291 291 290 290 289 289 288 288 288 288 288 288 288 287 287 287 287 287 287 286 286 286 285 285 285 285 285 284 284 284 284 283 283 282 282 282 282 283 283 283 284 284 284 285 285 285 285 286 286 286 286 286 286 285 285 285 285 285 285 285 285 286 286 286 286 286
302 302 301 300 300 299 298 297 295 294 293 292 292 291 291 291 291 290 290 290 290 290 289 289 288 288 288 288 288 288 287 287 287 287 287 287 286 286 286 285 285 285 285 285 284 284 284 284 283 283 283 282 282 282 282 282 282 283 283 283 284 284 284 284 284 284 285 285 285 285 285 285 285 285 285 285 285 285 285 285 286 286 286 286 286
300 300 299 299 298 297 296 294 293 292 292 291 291 291 290 290 290 290 290 290 290 289 289 289 288 288 288 288 288 287 287 287 287 287 286 286 286 285 285 285 284 284 284 284 284 283 283 283 282 282 282 281 281 281 281 281 281 282 283 283 283 283 283 283 283 283 284 284 284 284 284 285 284 284 284 284 284 285 285 285 286 286 286 286 286
299 298 298 297 296 295 294 293 292 291 291 291 290 290 290 290 290 290 290 289 289 289 288 288 288 288 287 287 287 287 287 287 286 286 286 285 285 285 284 284 284 284 284 283 283 282 282 281 281 281 281 280 280 280 280 281 281 282 282 282 282 282 282 283 283 283 283 283 283 284 284 284 284 284 284 284 285 285 285 285 286 286 286 286 286
297 297 296 296 295 293 292 291 291 291 290 290 290 290 290 290 289 289 289 289 288 288 288 288 288 288 287 287 287 287 287 286 286 286 285 285 285 284 284 284 284 284 283 283 282 282 281 281 280 280 280 280 280 280 280 281 282 282 282 282 282 282 282 283 283 283 283 283 283 283 284 284 284 284 284 284 285 285 285 285 286 286 286 286 286
296 296 295 294 293 292 291 291 290 290 290 290 290 289 290 289 289 289 288 288 288 288 288 288 288 287 287 287 287 287 286 286 286 285 285 284 284 284 284 284 284 283 283 282 282 281 280 280 280 279 279 279 279 280 281 282 282 282 282 282 282 282 282 282 282 282 283 283 283 283 283 284 284 284 284 285 285 285 285 285 286 286 286 286 286
295 295 294 293 292 291 291 290 290 290 289 289 289 289 289 289 289 288 288 288 287 287 287 287 287 287 287 287 286 286 286 286 285 285 284 284 284 284 284 284 283 283 282 282 281 280 280 280 279 279 278 278 279 280 281 282 282 282 282 281 281 281 281 281 281 282 282 282 283 283 283 284 284 284 284 285 285 285 285 285 285 285 286 286 286
294 294 293 292 291 291 290 290 290 290 289 289 289 289 289 289 288 288 288 287 287 287 287 287 287 287 286 286 286 286 285 285 285 284 284 284 284 284 284 283 282 282 281 281 280 280 280 279 279 278 278 278 279 280 281 282 281 281 281 281 281 281 281 280 281 282 282 282 283 283 283 283 283 283 284 284 284 285 285 285 285 285 285 285 285
293 293 292 292 291 290 290 290 290 290 289 289 289 289 288 288 288 287 287 287 287 287 287 286 286 286 286 286 286 285 285 284 284 284 284 284 283 283 282 282 282 281 280 280 280 280 279 278 278 278 278 278 279 280 281 281 281 281 281 281 281 280 280 281 281 282 282 282 281 281 282 282 283 283 284 284 284 284 285 285 285 284 284 284 284
293 292 292 291 290 290 289 289 290 290 289 289 289 288 288 288 287 287 287 287 287 286 286 286 286 286 285 285 285 285 284 284 284 284 284 283 282 282 282 281 281 280 279 279 279 279 278 278 277 277 278 279 280 280 281 281 280 280 281 281 280 280 281 281 282 281 281 281 281 281 281 282 283 283 283 283 284 284 284 284 283 282 282 282 282
293 292 291 290 290 289 289 289 289 289 289 289 288 288 288 287 287 287 286 286 286 286 286 285 285 285 285 285 284 284 284 284 284 284 283 283 282 281 281 280 280 279 278 278 278 277 277 277 277 277 278 279 280 280 280 280 280 280 280 280 280 280 281 281 281 280 280 280 280 281 281 282 282 283 283 283 283 283 283 282 280 280 279 279 279
292 291 291 290 289 289 288 289 289 289 289 288 288 287 287 287 287 286 286 286 286 285 285 285 285 285 284 284 284 284 284 284 283 283 283 282 281 280 279 279 278 278 277 276 276 276 276 276 276 277 278 279 279 279 279 279 279 279 279 279 280 281 281 280 280 280 280 280 280 281 282 282 282 282 282 282 282 281 281 280 279 278 277 277 277
291 291 290 289 289 288 288 288 289 288 288 288 287 287 286 286 286 286 286 285 285 285 285 284 284 284 283 283 283 283 283 283 283 282 282 281 280 279 278 278 277 277 276 276 276 276 276 276 276 277 278 279 278 278 278 278 278 278 279 280 280 280 279 279 279 279 279 279 280 281 281 281 281 281 280 280 280 280 279 278 277 277 276 276 276
290 290 289 288 288 288 288 288 288 288 287 287 287 287 286 286 286 285 285 285 284 284 284 284 284 283 283 283 283 283 283 282 282 282 281 280 279 278 278 277 276 276 276 276 275 275 276 276 277 277 278 277 277 277 277 277 278 278 279 279 279 278 278 278 278 278 279 279 280 280 280 280 280 279 279 279 279 278 278 277 276 276 276 275 276
289 288 288 288 287 287 288 288 287 287 287 287 286 286 286 285 285 285 284 284 284 284 284 283 283 283 283 283 283 282 282 281 281 280 280 280 279 277 277 276 276 275 276 275 275 275 276 276 277 277 276 276 276 276 276 277 277 278 278 278 277 277 277 277 278 278 279 279 279 279 279 279 278 278 278 278 278 277 276 276 275 275 275 275 276
289 288 287 287 287 287 287 287 287 286 286 286 286 286 286 285 284 284 284 284 284 284 283 283 283 283 283 282 282 281 280 280 279 279 279 279 277 276 276 275 275 275 275 275 275 276 276 276 276 275 274 275 275 275 276 276 276 276 276 276 276 276 276 277 278 278 278 278 278 278 277 277 277 277 277 277 276 276 275 275 275 275 275 275 276
288 287 287 286 286 287 287 286 286 286 286 286 286 285 285 285 285 284 284 283 283 283 283 282 282 282 282 281 281 280 279 278 278 279 278 277 276 276 275 275 275 275 274 274 275 275 275 275 275 274 274 274 275 275 275 275 275 274 274 275 275 275 276 277 277 277 276 276 276 276 276 276 277 277 276 276 275 275 274 274 274 275 275 275 276
287 286 286 286 286 286 286 286 285 285 285 285 285 285 285 284 284 284 284 283 283 283 282 282 281 281 281 281 280 279 278 278 278 277 276 275 275 275 275 275 275 274 274 274 274 274 274 274 274 273 273 273 274 274 273 273 273 273 273 273 274 274 275 275 275 275 275 274 275 275 275 276 276 276 276 275 275 274 274 274 274 274 274 275 275
287 286 285 285 285 285 285 285 285 285 285 284 284 284 284 284 284 284 284 283 283 283 282 282 281 281 281 280 279 278 278 277 277 276 275 274 274 274 275 275 274 274 274 274 274 274 274 274 273 272 272 272 272 272 271 270 270 271 271 271 272 273 273 273 273 273 273 273 274 274 275 276 276 275 275 274 274 274 273 273 273 273 274 274 273
286 285 285 284 284 284 284 284 285 285 284 284 283 283 283 283 283 283 283 282 282 282 282 282 281 281 280 280 278 278 277 276 276 274 274 274 274 274 274 274 274 273 273 274 274 274 274 273 272 271 270 270 269 269 269 269 269 269 269 270 271 272 272 272 272 272 272 272 273 274 275 275 275 275 274 273 273 273 273 273 273 273 273 273 272
285 284 283 283 283 283 283 283 283 283 283 283 282 281 281 281 281 281 281 280 280 280 280 280 280 280 279 278 277 277 277 276 275 273 273 273 273 274 274 274 273 273 274 274 275 274 273 271 270 269 268 268 268 268 267 267 267 268 268 269 270 270 270 270 270 270 271 272 273 274 274 275 274 274 273 273 273 273 273 273 273 273 272 272 271
284 283 283 283 282 282 282 282 283 282 282 282 281 280 279 278 278 279 279 279 279 279 279 279 279 278 277 277 277 277 277 276 274 272 272 273 273 273 273 273 273 274 274 274 274 273 270 268 267 267 267 266 266 266 266 266 266 267 267 268 269 269 268 268 269 269 270 271 272 273 274 274 274 273 273 273 272 272 272 272 272 272 272 271 271
284 283 282 281 281 281 281 282 282 282 281 280 280 279 279 278 277 277 277 278 278 277 277 276 276 276 276 277 277 277 276 275 273 272 272 272 272 273 273 273 273 274 274 274 274 272 269 266 266 266 265 265 265 265 265 266 266 266 266 267 267 267 267 267 267 268 269 271 272 272 273 273 273 273 273 272 272 272 272 271 271 271 271 271 271
284 282 281 281 280 280 281 281 281 281 281 280 279 279 279 279 278 276 276 276 276 275 275 275 275 275 275 276 277 276 275 274 273 273 272 271 271 273 273 273 272 273 273 274 273 271 268 266 266 265 265 265 264 264 265 265 265 265 265 266 266 265 265 266 266 267 269 270 271 272 272 273 273 273 272 272 272 272 271 271 271 271 271 271 271
283 282 281 281 281 281 281 281 280 280 280 280 279 279 279 279 279 278 276 275 275 274 274 274 274 274 275 275 275 275 274 273 274 273 271 271 272 272 273 272 272 272 272 273 272 270 268 266 266 265 264 264 264 264 264 264 264 264 264 264 264 264 264 265 265 266 267 269 270 271 272 272 272 272 272 272 272 272 271 270 270 270 270 270 270
281 281 280 280 280 280 280 280 280 279 279 279 280 279 279 279 279 278 278 277 276 275 274 274 273 274 274 274 274 274 273 273 273 272 270 271 272 272 272 272 273 272 272 272 271 270 268 267 266 266 265 265 264 264 264 264 264 263 263 263 263 264 264 264 264 265 266 267 269 270 271 272 272 272 272 272 272 271 271 270 270 270 270 270 270
280 279 279 279 279 279 278 278 279 279 279 279 279 279 279 279 278 278 278 277 276 275 274 273 273 274 274 274 274 273 272 272 272 271 270 270 271 271 272 273 272 272 271 271 270 269 268 267 267 267 266 265 265 265 264 264 264 263 263 263 263 263 264 264 264 264 265 267 268 269 270 271 272 272 272 272 272 271 270 270 270 270 270 270 270
280 279 279 279 278 278 277 277 278 278 278 278 278 278 278 278 277 277 277 276 276 275 274 273 274 274 274 274 274 273 272 272 271 270 270 270 271 271 271 271 271 270 270 270 269 269 269 268 267 267 266 266 265 265 265 265 264 264 264 263 263 263 264 264 264 264 265 266 267 268 269 270 271 271 272 271 271 271 271 270 270 270 270 270 270
279 278 278 278 277 277 276 276 277 277 277 277 277 277 277 276 276 276 276 276 275 274 274 274 274 274 274 273 273 273 272 272 271 270 270 270 270 270 270 270 270 270 270 269 269 269 268 268 267 267 266 266 265 265 265 265 265 264 264 263 264 264 264 264 264 264 265 265 266 267 268 269 270 271 271 271 271 271 271 270 270 270 270 270 270
278 277 277 276 276 276 275 275 276 276 275 276 276 275 275 275 275 275 275 275 274 274 274 273 273 273 273 273 272 272 272 271 271 270 270 270 270 270 269 269 270 270 270 270 269 269 268 268 267 267 267 266 266 265 265 265 265 265 264 263 264 264 264 264 264 264 265 265 266 266 267 268 269 270 271 271 271 271 271 270 270 270 270 270 271
278 277 276 275 275 274 274 274 274 274 274 274 274 274 274 274 274 274 274 274 274 274 273 273 273 273 273 272 272 272 272 272 271 271 271 270 270 269 269 270 270 270 270 270 270 269 269 268 268 267 267 267 266 266 266 265 265 265 265 264 264 264 264 264 264 264 264 265 265 266 266 267 268 269 270 270 271 271 270 270 270 270 270 270 270
276 276 275 274 274 273 272 272 273 273 273 273 273 273 273 273 273 274 274 274 274 274 274 274 274 273 272 272 272 272 272 271 270 270 271 270 269 269 269 269 269 269 269 270 269 269 269 268 268 267 267 267 267 266 266 266 265 265 265 264 264 264 264 264 264 264 264 265 265 266 266 267 268 269 269 270 270 270 270 270 270 270 270 270 270
275 274 274 273 272 272 272 272 272 272 272 272 272 273 273 273 273 274 274 274 274 274 273 273 272 271 271 271 271 270 270 270 269 269 270 269 268 268 268 268 268 268 269 269 269 269 269 268 268 267 267 267 267 266 266 266 266 265 265 264 264 263 263 264 264 265 265 265 266 266 266 266 267 268 269 269 270 270 270 270 270 269 269 269 269
273 273 272 272 271 271 271 271 271 271 271 271 272 272 272 272 272 273 273 273 273 273 273 272 270 269 270 270 268 268 268 268 268 269 268 268 268 268 268 268 267 267 267 267 268 268 268 268 268 267 267 267 266 266 266 265 265 265 265 264 263 263 263 263 264 265 265 266 266 266 266 266 267 267 268 269 269 269 269 269 269 269 269 269 268
272 272 271 270 270 270 270 270 270 270 271 271 271 271 271 271 271 272 272 272 272 272 272 271 270 269 269 268 267 267 268 268 268 268 268 268 268 268 267 267 267 267 267 267 267 267 267 267 267 267 267 267 266 266 266 265 265 265 265 264 263 262 262 262 263 264 265 266 266 267 267 267 267 267 267 268 268 269 269 269 269 269 269 268 268
271 270 270 270 269 269 269 269 269 270 270 270 270 270 270 270 270 271 271 271 271 270 270 269 269 268 268 267 267 267 267 267 268 268 268 268 268 268 268 267 267 266 266 266 266 266 266 266 266 267 267 267 267 266 266 266 266 265 265 265 264 263 263 262 263 264 265 265 266 267 267 267 267 267 267 267 268 268 268 268 269 268 268 268 268
270 269 269 269 269 269 269 269 269 269 269 269 269 269 268 268 268 268 269 269 269 270 270 269 268 268 268 268 267 267 267 268 268 268 268 268 268 268 268 267 267 267 267 267 266 266 266 266 266 266 266 266 266 266 266 266 266 266 266 265 265 265 264 263 263 264 265 265 266 266 267 267 267 267 267 267 267 267 268 268 268 268 268 268 268
270 269 268 268 268 268 268 268 268 268 268 268 267 267 267 267 268 268 269 269 269 269 270 269 269 268 268 268 268 268 268 268 268 267 267 268 268 268 268 267 267 267 267 267 267 267 266 266 266 266 266 266 266 266 266 266 266 266 266 266 266 267 266 264 264 265 265 266 266 266 267 267 268 268 267 267 267 267 267 267 268 267 267 267 267
269 268 268 267 267 267 267 267 268 268 268 267 267 268 268 269 269 269 269 269 269 269 269 269 269 269 268 268 268 268 268 268 267 267 267 267 267 268 268 267 267 267 267 267 267 267 267 266 266 266 266 266 266 266 266 266 265 266 266 266 266 267 266 265 265 265 266 266 266 266 267 267 267 268 267 267 267 267 267 267 267 267 267 267 267
268 267 267 266 266 266 267 267 267 267 268 268 269 269 269 269 269 269 268 268 269 269 269 269 269 268 268 268 268 268 267 267 267 267 267 267 267 267 267 267 267 267 267 268 268 267 267 267 267 266 266 266 266 266 266 266 265 265 265 265 266 266 266 265 265 265 265 266 266 267 267 267 267 268 267 267 267 267 266 267 267 267 267 267 266
267 267 266 266 265 266 266 266 267 267 268 268 268 268 268 267 268 268 268 268 268 268 268 268 268 268 268 268 268 267 267 267 267 267 267 267 267 267 267 267 267 268 268 268 268 268 267 267 267 267 267 267 267 266 266 266 266 265 265 265 265 265 265 265 265 265 265 265 266 266 267 267 267 267 268 267 267 267 267 266 266 266 266 266 266
266 266 265 265 265 265 265 266 266 267 267 267 267 267 267 267 268 268 268 268 268 268 268 267 267 267 267 267 267 267 267 267 267 267 267 267 267 267 267 267 267 268 268 268 268 268 268 267 268 268 267 267 267 267 267 266 266 266 265 265 265 265 264 264 264 265 265 265 265 266 266 266 267 267 267 267 267 267 267 266 266 266 266 266 266
Wind_Speed
25 26 26 26 26 26 25 24 23 21 20 20 21 21 20 20 21 22 22 21 20 19 18 16 14 13 12 11 10 9 8 8 7 6 5 4 4 4 4 4 5 6 7 8 9 11 12 13 15 16 17 19 20 20 21 20 20 21 20 20 22 19 17 19 16 21 43 50 43 47 49 43 46 49 43 43 47 47 47 46 44 45 45 44 45
25 25 25 25 25 25 24 23 22 22 23 23 22 21 22 23 24 24 23 22 20 18 17 16 14 12 12 11 10 9 8 7 6 5 4 4 4 4 4 5 7 8 9 10 12 13 15 16 17 18 19 21 22 22 23 23 23 24 24 22 24 24 19 20 22 21 32 48 50 50 50 44 43 47 43 40 45 48 50 49 46 46 46 45 46
25 25 25 25 25 24 24 24 25 25 25 24 23 24 25 25 25 24 23 22 20 18 16 15 14 13 12 11 10 9 8 7 6 5 4 4 4 5 6 7 8 10 11 12 14 15 17 18 19 20 22 23 24 24 24 25 25 25 26 25 24 27 24 20 24 25 28 41 50 51 51 49 47 47 45 42 43 44 47 50 49 48 49 49 47
25 25 25 25 25 25 26 26 27 26 25 25 26 27 27 27 25 24 23 21 19 18 16 15 14 13 12 11 10 9 8 7 6 4 4 4 5 6 7 8 9 10 12 13 14 16 18 20 21 22 23 25 25 26 26 25 26 25 26 28 26 27 28 24 24 27 29 36 47 50 50 49 49 50 48 45 45 44 44 48 50 49 49 49 46
25 26 27 27 28 28 28 28 27 26 27 28 29 29 28 27 25 23 22 20 19 18 17 15 14 13 12 11 10 9 8 6 5 4 4 4 5 6 7 8 9 10 12 14 15 17 19 20 22 22 23 25 25 26 26 26 26 26 26 28 28 27 28 26 25 27 29 33 41 48 49 47 48 51 48 43 44 45 44 46 47 47 47 48 49
26 27 29 30 30 29 29 28 28 28 30 31 31 30 28 26 25 22 21 20 19 18 17 16 14 12 12 11 10 9 7 6 4 4 4 4 5 6 7 9 10 11 13 15 16 18 19 20 21 22 22 23 25 25 26 26 25 26 27 27 28 28 28 27 26 26 29 33 37 42 45 46 46 47 47 43 42 43 42 41 44 47 48 50 52
28 29 29 30 30 29 29 29 29 31 32 32 31 29 27 26 24 23 21 20 19 18 17 16 14 13 12 11 9 8 6 5 4 4 4 5 6 7 9 10 11 13 14 16 17 18 19 20 20 21 21 22 23 23 24 25 26 25 25 27 28 28 28 28 27 26 29 32 34 36 39 42 41 41 45 46 42 40 38 35 38 45 49 48 50
29 29 30 30 30 30 30 31 31 32 32 32 30 29 27 26 24 23 21 20 19 18 17 15 14 13 12 10 9 7 5 4 3 4 4 6 7 8 10 11 13 14 15 16 18 18 19 20 20 21 22 21 21 22 22 23 25 26 25 25 26 28 28 28 28 28 29 31 33 33 35 36 36 37 42 42 35 34 40 39 36 41 45 45 45
29 30 30 31 31 32 32 33 33 33 33 32 30 29 27 26 24 23 21 20 19 18 17 15 14 13 11 9 8 6 4 3 4 4 5 7 8 9 11 12 14 16 17 17 18 19 20 21 21 21 22 22 21 21 21 21 22 24 26 25 26 27 28 29 28 28 29 30 30 30 31 32 33 34 35 36 34 37 46 46 40 42 46 43 44
31 31 32 33 34 34 34 35 35 34 33 32 30 29 27 26 24 23 22 20 19 18 16 15 13 12 10 8 7 5 4 4 4 5 6 7 9 10 11 13 15 16 18 19 20 21 21 21 23 23 22 23 23 22 22 22 21 22 23 24 25 26 28 29 29 28 28 28 28 29 28 29 34 36 34 37 42 43 44 43 40 43 43 35 36
33 34 34 35 35 36 36 36 35 34 33 31 30 29 27 26 24 23 22 21 19 18 17 15 14 12 10 8 6 5 4 3 3 4 6 7 9 11 12 14 15 16 18 20 21 22 22 22 23 24 24 24 25 25 24 23 22 21 21 21 21 22 24 27 29 29 29 29 30 30 27 26 34 39 37 39 42 42 43 43 41 39 35 23 20
34 34 35 35 36 37 36 36 35 33 32 31 30 29 27 26 24 23 22 21 19 18 16 15 13 11 9 7 5 4 3 2 3 4 6 8 10 12 13 14 15 17 18 19 21 21 22 23 24 24 24 24 25 26 26 25 24 22 22 22 21 21 21 24 28 30 30 31 32 33 31 30 35 39 39 40 42 43 44 43 40 37 34 25 18
34 34 35 36 37 37 36 36 35 34 32 31 30 29 27 26 25 23 22 20 19 18 16 14 12 10 8 6 5 3 2 2 3 5 7 9 10 12 13 15 16 17 18 19 20 21 22 23 23 23 24 25 26 27 27 27 27 26 25 25 25 25 25 25 26 28 30 32 33 34 35 35 36 39 43 44 44 44 43 41 41 40 36 32 32
34 34 35 36 37 37 37 36 35 34 32 31 30 29 28 26 25 23 21 20 19 17 16 14 12 10 8 5 4 2 0 2 4 6 8 9 11 12 14 15 17 18 19 19 20 20 21 21 22 23 24 25 26 26 27 28 29 30 31 30 30 30 29 29 29 29 29 30 31 34 38 39 40 43 46 46 44 44 43 42 42 41 39 40 44
33 34 36 37 37 37 37 36 35 34 32 31 30 29 28 26 25 23 21 20 18 17 15 13 11 10 7 5 3 2 1 3 5 7 8 10 12 13 15 16 18 18 19 19 19 20 20 21 22 23 24 25 25 24 25 28 31 33 35 36 35 34 33 31 30 30 30 31 33 37 39 41 42 44 45 45 44 44 44 43 42 41 42 42 42
34 35 37 38 38 38 38 37 36 34 33 32 31 30 28 26 25 23 22 20 18 16 14 13 11 9 7 5 3 1 2 4 5 7 9 11 12 14 16 18 19 19 19 20 20 20 20 21 23 24 24 24 23 22 23 27 30 33 36 38 39 38 37 34 31 30 32 34 36 38 39 40 41 41 41 42 43 44 43 42 42 41 37 32 30
35 37 38 40 39 39 38 37 36 35 34 32 31 30 28 27 25 23 22 20 18 16 14 12 11 9 7 5 2 1 2 4 6 7 9 11 13 15 17 18 19 19 20 20 20 21 21 22 23 24 24 24 22 22 24 27 29 32 34 36 39 40 40 39 38 38 38 37 37 37 37 38 38 37 38 39 40 43 41 37 37 37 30 19 14
36 37 39 40 40 39 38 38 37 35 34 33 32 31 28 27 25 23 21 19 17 16 14 12 10 8 6 4 2 1 2 4 6 8 10 12 14 16 17 18 20 20 20 21 21 22 22 23 23 22 23 23 22 23 24 26 29 31 31 34 36 37 39 41 43 43 44 43 42 40 39 39 38 37 38 39 39 41 38 33 33 33 27 19 15
37 38 39 39 40 39 37 37 36 35 34 33 32 30 28 26 25 23 21 19 17 15 14 12 10 8 5 3 1 0 2 5 6 8 10 11 13 15 16 19 21 21 23 24 24 23 23 23 23 22 21 22 24 25 25 25 27 29 29 31 32 34 36 39 41 42 44 45 45 45 44 43 41 39 38 38 38 36 32 31 33 32 28 25 23
38 38 38 38 38 38 37 36 35 34 33 32 31 29 28 26 24 23 21 18 16 15 13 12 10 7 5 3 1 1 2 5 6 8 9 10 12 14 16 19 21 22 24 24 25 25 23 23 24 23 22 24 26 27 26 24 25 26 27 27 28 31 35 37 38 39 40 42 43 43 43 42 42 40 38 37 35 32 33 34 35 33 28 28 27
37 37 37 37 38 37 36 34 33 33 32 31 30 28 26 25 24 22 21 19 17 15 13 11 10 7 5 3 1 1 3 4 6 7 9 10 11 12 15 17 18 20 22 22 23 25 25 24 25 24 23 26 27 27 26 24 23 24 24 24 26 29 32 34 35 35 36 39 40 40 40 39 40 39 38 37 35 34 36 38 37 34 30 27 27
36 36 36 36 36 35 34 33 32 32 31 31 30 28 26 24 23 22 21 19 17 16 13 11 10 8 6 3 1 2 3 4 5 6 7 8 9 11 14 15 15 17 20 22 23 25 25 25 26 25 25 26 26 25 25 25 24 23 22 24 26 28 28 29 31 32 33 36 36 35 36 36 37 38 38 40 39 36 37 38 38 35 31 27 25
35 35 35 35 34 34 33 32 32 31 31 30 29 27 26 24 23 21 20 19 18 16 14 12 10 8 6 3 1 2 2 3 4 5 6 7 9 11 12 14 14 15 18 20 22 23 24 25 26 26 26 26 25 25 25 24 24 23 24 26 27 26 26 27 29 30 32 32 31 31 33 33 35 38 40 40 39 38 38 38 37 34 31 29 27
33 34 34 34 33 33 32 32 31 31 31 29 28 27 26 25 23 21 20 19 18 16 15 13 11 9 7 4 3 2 2 2 3 5 6 7 9 11 11 13 13 14 15 17 19 21 23 25 26 26 26 25 24 24 23 22 22 24 26 26 25 25 26 28 29 30 30 29 29 29 30 32 35 38 38 38 38 38 37 36 35 33 30 29 26
33 34 34 34 33 33 32 32 31 31 30 29 28 27 27 25 23 22 21 19 18 17 15 14 11 10 8 6 4 2 1 1 2 5 7 8 10 10 11 12 13 14 15 17 18 19 21 23 24 24 24 24 23 23 22 22 22 24 24 24 24 25 26 27 27 27 27 28 28 28 30 35 37 36 36 37 37 36 35 36 36 34 31 29 24
34 34 34 34 34 33 33 32 31 31 30 29 28 27 26 25 24 22 21 19 18 17 16 14 12 11 9 8 6 4 2 1 2 5 7 9 11 11 12 14 14 15 16 16 16 17 19 21 22 22 22 22 21 21 22 22 24 24 23 23 23 24 25 25 25 26 27 28 29 30 33 37 37 36 36 35 34 33 33 33 34 33 31 29 23
35 34 35 34 34 34 34 34 33 31 30 29 28 27 25 24 24 23 22 21 19 18 16 15 13 12 10 8 7 5 3 1 3 6 7 9 11 12 13 15 16 16 16 17 17 18 19 19 19 19 19 19 18 18 19 22 25 26 26 25 24 24 24 24 23 24 26 28 30 33 36 37 36 36 36 34 31 31 31 30 29 29 27 24 18
35 35 35 35 35 35 35 34 33 32 31 30 29 27 26 25 24 23 21 20 20 19 17 15 13 12 10 9 7 5 3 1 4 6 7 8 9 11 13 14 14 15 15 16 17 17 17 18 18 18 19 20 20 20 22 24 25 26 26 26 25 24 24 24 24 25 26 28 30 33 35 35 34 35 35 32 30 30 30 28 26 24 22 17 14
34 34 34 34 35 35 34 34 33 33 32 30 28 26 25 24 23 21 19 18 17 15 15 14 12 10 9 8 7 5 2 1 3 4 5 6 7 9 10 11 11 11 12 13 14 15 16 17 18 19 20 21 22 23 25 27 27 26 25 25 26 26 26 26 27 29 29 29 31 33 33 33 33 34 33 31 29 29 29 27 24 21 17 14 14
33 33 34 34 35 35 34 34 33 33 32 30 28 25 22 21 20 20 18 17 15 13 13 12 11 9 8 7 6 4 2 1 1 2 3 4 5 6 6 6 7 8 10 10 11 13 16 16 16 18 20 22 23 25 26 28 29 29 28 26 25 27 29 28 28 29 29 29 31 32 32 32 32 32 31 29 29 29 28 24 21 18 15 13 13
33 34 35 35 35 35 35 34 34 33 31 30 29 26 23 20 18 18 17 15 13 12 12 11 10 10 9 8 6 4 3 3 2 1 2 3 4 4 4 4 5 7 8 9 10 12 14 15 15 17 19 21 22 24 25 26 28 30 31 29 28 29 31 31 30 30 29 29 31 32 31 31 31 30 29 27 27 27 26 23 19 15 13 12 12
34 34 35 35 34 34 34 34 34 33 32 30 29 27 26 23 19 17 16 14 13 12 12 11 11 11 10 9 8 6 5 4 3 2 2 2 3 3 2 2 4 5 6 8 10 12 14 14 14 16 18 20 20 21 23 24 26 28 29 29 30 31 32 32 32 30 28 28 30 31 31 30 30 29 27 26 25 25 24 21 17 14 12 12 12
34 34 34 34 34 34 34 34 35 35 34 33 31 29 29 27 24 20 18 15 13 13 14 13 12 12 11 9 8 7 6 5 3 2 2 3 4 2 0 1 3 5 6 7 10 13 13 13 14 15 17 18 19 20 21 23 25 25 25 26 28 31 32 32 31 29 26 26 29 30 30 30 29 28 26 25 24 23 21 18 16 12 11 11 12
33 32 33 35 35 36 36 36 36 35 34 33 33 32 31 29 27 26 25 22 18 17 17 16 15 13 11 10 9 8 6 5 4 3 3 4 4 1 0 1 1 4 6 9 11 13 13 14 15 16 16 17 18 20 21 23 24 24 24 25 27 29 31 32 30 27 25 26 28 29 30 29 28 27 25 24 23 21 19 16 14 11 10 11 11
31 30 31 33 34 35 35 36 36 35 34 34 33 33 32 29 27 27 28 28 26 23 20 18 17 14 12 11 10 8 7 5 4 4 4 5 3 1 1 1 1 4 7 9 11 12 13 14 15 16 17 18 18 19 21 23 23 24 25 26 27 29 31 31 29 28 27 27 27 28 28 28 27 25 24 23 22 20 18 15 12 10 9 9 9
31 29 29 31 33 33 33 34 35 35 35 35 34 32 31 30 28 28 28 27 26 24 22 20 18 15 13 12 11 9 7 6 5 5 5 5 2 1 2 1 4 6 8 10 10 11 12 13 14 15 16 17 18 19 20 21 22 23 24 25 27 29 30 29 28 27 27 26 26 26 27 27 27 26 24 22 20 18 16 13 10 7 7 7 7
32 31 30 31 32 32 32 33 33 33 33 33 32 31 30 30 29 28 27 25 24 24 22 21 19 17 14 13 12 11 9 8 7 7 6 5 3 1 1 2 6 7 8 9 9 10 11 11 12 14 15 16 18 19 19 20 21 23 24 24 26 27 27 27 27 26 26 25 25 26 26 26 26 26 24 22 20 18 15 11 8 5 5 4 4
32 32 31 31 31 32 32 32 32 32 31 31 31 30 30 29 28 28 27 26 25 24 23 22 20 19 16 15 14 12 11 10 9 8 7 6 4 1 0 3 5 6 7 8 8 9 9 10 10 11 13 15 16 17 19 20 21 21 23 24 25 26 27 27 27 26 25 25 26 26 25 24 25 25 23 22 20 18 15 11 7 4 3 2 2
31 31 30 29 29 30 31 31 31 31 31 30 30 30 30 29 29 28 28 27 26 25 24 23 21 19 18 17 15 14 12 11 10 9 8 6 4 3 1 1 3 5 6 7 7 8 8 9 9 10 11 13 15 16 18 19 19 20 21 22 24 26 27 28 28 28 27 26 26 26 24 24 24 24 23 21 19 18 15 11 7 5 4 2 2
32 32 31 29 29 29 30 30 30 31 32 31 31 31 31 30 30 30 29 28 28 27 26 24 22 20 18 17 16 15 13 12 11 10 9 7 5 4 2 1 2 3 5 5 6 7 8 9 9 10 11 12 13 15 16 17 18 19 19 21 22 25 26 26 27 27 27 27 26 25 25 24 24 24 23 21 19 17 14 11 8 6 4 2 4
31 31 31 30 29 29 28 29 30 31 31 31 31 31 31 31 30 29 29 29 28 27 25 23 21 19 18 17 16 14 13 12 11 10 9 8 7 6 3 2 2 3 4 5 5 7 8 9 10 10 11 11 12 14 15 16 17 18 18 19 21 23 24 25 26 26 27 28 27 26 25 23 22 22 22 20 18 16 14 11 9 7 4 4 5
29 30 29 29 29 29 29 31 31 31 30 30 31 32 31 30 30 30 30 29 28 26 25 22 20 19 19 17 15 14 13 13 12 11 10 9 8 6 4 4 3 3 3 4 5 6 8 9 9 10 10 11 12 13 14 15 16 17 17 18 19 21 22 24 25 27 28 28 28 27 25 23 21 21 21 19 17 15 13 11 10 7 5 6 6
28 28 28 28 29 29 30 31 30 31 32 32 31 31 31 30 30 30 30 28 27 25 24 23 22 20 19 17 16 15 15 14 13 11 10 10 9 7 6 5 5 5 4 5 6 7 8 9 10 10 10 10 11 12 12 13 15 16 17 17 17 19 20 22 24 26 28 29 28 27 26 23 22 21 20 19 16 14 13 11 9 7 7 8 7
27 27 27 28 28 29 29 29 29 31 32 31 31 31 30 30 30 30 29 28 27 25 24 24 22 21 20 19 18 18 17 15 13 12 11 10 9 8 7 7 7 7 7 6 7 8 9 10 11 11 11 10 10 11 11 12 12 14 15 15 16 17 18 20 22 24 26 27 27 27 26 24 22 21 20 19 16 14 12 11 10 8 9 10 9
26 27 27 28 28 29 29 29 29 30 30 30 30 31 30 30 30 29 28 28 27 25 24 23 22 21 20 20 19 19 17 16 14 13 13 12 10 9 9 9 10 10 9 8 8 9 10 11 12 13 12 11 11 11 11 11 11 12 13 13 14 15 16 18 21 22 22 23 24 25 25 24 23 21 20 19 16 14 13 12 11 10 10 11 11
26 27 28 28 29 30 30 29 29 29 29 30 31 30 29 29 29 27 27 26 25 24 23 23 22 22 21 21 20 19 18 16 15 14 14 13 11 11 11 11 11 11 11 10 10 10 11 12 14 14 14 13 13 13 13 12 12 12 12 12 13 13 14 16 19 20 20 20 22 22 23 23 22 21 20 18 16 14 13 12 12 11 11 12 12
26 27 28 29 29 29 29 29 30 29 29 29 29 29 28 27 26 26 27 27 26 25 24 23 23 23 22 22 22 20 18 16 16 15 15 14 12 12 12 12 12 12 11 10 10 11 12 13 14 15 15 15 15 15 14 14 14 13 13 13 13 13 13 15 17 18 18 19 19 20 20 21 21 20 19 18 16 14 12 12 12 11 11 12 12
26 27 28 29 29 29 28 28 30 31 31 30 30 30 30 29 29 30 30 28 27 26 25 25 25 24 24 23 22 20 18 17 16 16 15 14 13 13 13 13 12 12 11 10 10 10 11 13 14 14 15 15 16 16 16 16 15 15 14 14 14 14 13 14 15 16 17 17 18 18 18 19 19 19 18 17 16 14 12 11 11 11 11 11 11
26 27 28 28 28 29 29 29 30 32 32 32 32 32 32 32 32 31 30 29 28 27 27 26 26 26 25 24 22 19 18 17 17 16 15 15 14 14 14 13 12 12 11 9 9 9 10 12 13 13 14 15 15 16 17 16 16 17 16 15 15 15 13 13 14 15 16 16 17 17 17 18 17 17 16 16 15 14 12 11 11 11 11 11 11
26 27 27 28 28 28 28 28 29 30 31 32 33 32 31 31 31 31 30 29 29 28 27 27 27 26 25 23 21 19 18 18 18 17 16 15 15 14 14 13 12 11 10 9 8 8 9 10 11 11 12 13 14 15 16 16 16 17 17 16 16 16 15 14 15 15 15 16 16 16 16 16 16 16 15 14 13 13 12 11 11 10 11 11 11
25 26 27 27 27 27 27 28 29 30 30 31 32 32 31 31 31 31 30 30 29 28 27 26 26 25 24 22 20 19 19 18 18 17 16 16 15 15 14 13 12 11 10 8 8 7 8 8 9 10 11 12 13 13 14 15 16 16 16 17 17 16 16 16 16 16 16 16 15 15 15 15 15 15 15 14 13 12 12 11 11 11 11 11 11
Wind_Direction
179 179 179 181 183 183 185 189 193 196 195 189 184 180 177 175 172 168 161 157 156 154 152 149 148 147 145 143 140 135 131 127 123 118 114 100 89 77 60 47 32 24 18 8 2 358 354 357 359 354 348 345 346 348 345 343 340 334 332 327 318 314 304 290 277 284 297 301 301 302 306 309 309 310 314 316 316 317 317 316 316 315 314 313 312
180 182 182 183 187 188 191 193 193 191 184 180 179 176 174 171 167 163 158 155 155 155 153 151 150 150 148 144 139 134 130 126 121 117 110 93 76 60 40 27 17 11 9 4 0 357 353 353 356 353 348 345 344 346 343 340 339 333 330 329 320 316 312 296 288 285 294 300 303 303 306 308 308 309 313 315 315 317 316 315 315 314 313 312 311
186 187 188 190 192 193 193 189 186 183 179 177 176 172 169 166 163 161 157 155 155 156 155 153 152 151 148 142 139 136 132 127 123 118 106 82 60 45 28 18 12 6 3 1 356 354 351 351 353 351 346 343 342 342 341 338 337 333 329 327 322 317 316 305 293 288 289 297 300 303 306 310 310 310 313 314 314 315 314 313 313 312 312 312 310
193 194 193 192 190 189 186 182 180 179 177 175 172 169 166 163 161 161 158 156 157 157 156 154 153 151 148 145 142 138 134 129 122 110 89 65 44 32 22 14 10 4 359 356 352 350 350 349 350 348 344 341 339 339 338 337 336 333 329 326 324 319 316 311 298 290 288 292 297 301 305 308 309 309 312 314 314 314 312 311 311 311 312 312 311
197 195 191 186 183 181 180 178 178 177 174 172 169 166 164 161 161 162 161 160 159 158 156 154 153 152 149 145 142 139 135 128 118 99 72 49 31 21 16 10 5 1 356 352 351 350 349 348 347 346 343 339 337 337 336 336 335 332 329 326 324 321 316 311 303 295 288 287 293 299 304 306 307 308 312 314 314 314 313 312 312 313 313 312 310
189 186 183 180 178 178 178 177 177 175 172 169 167 165 163 162 163 163 164 163 161 158 156 154 154 154 150 146 142 138 132 124 112 89 63 40 27 17 11 6 359 356 354 351 351 349 347 347 345 343 343 339 337 338 336 334 333 330 328 325 323 320 315 311 307 301 294 291 293 297 302 305 306 307 312 315 315 314 313 313 313 314 314 312 311
182 180 180 179 177 177 178 177 175 172 170 168 166 164 163 164 165 165 165 164 160 158 157 155 155 152 148 145 141 137 130 121 102 76 52 30 23 12 3 360 353 350 350 349 349 348 345 344 344 342 343 341 338 337 336 334 331 328 325 324 322 319 314 312 310 305 299 296 294 295 299 302 304 306 311 315 314 312 313 314 312 312 313 311 310
182 181 180 179 178 177 176 175 172 170 169 167 166 165 165 167 167 165 164 164 161 159 158 156 154 150 147 146 142 137 133 119 90 58 38 20 12 4 355 350 346 345 347 346 346 345 343 342 344 344 343 342 340 338 336 333 328 325 323 323 321 318 315 313 310 306 303 299 296 298 300 302 304 307 311 315 315 314 315 313 308 308 310 309 307
183 182 181 180 178 176 173 172 171 170 169 168 167 168 168 168 167 165 165 164 161 159 157 155 152 150 148 147 144 140 131 102 65 37 23 9 359 354 350 347 346 344 342 343 344 343 343 343 344 345 344 343 342 338 334 332 327 322 322 324 322 318 315 312 310 307 306 303 301 303 305 304 307 311 313 314 313 312 312 311 305 305 308 307 305
184 182 181 179 177 174 172 172 171 171 170 170 170 170 169 168 167 166 165 164 162 159 156 154 152 152 151 150 149 140 117 76 51 25 6 357 349 347 346 345 347 345 342 342 343 342 343 343 343 345 345 344 343 339 334 332 328 321 319 322 321 319 316 313 312 311 309 306 305 308 308 306 308 310 309 309 309 308 308 308 304 305 307 305 304
185 183 181 178 175 174 173 172 172 172 171 172 172 171 170 169 168 167 166 164 162 159 157 156 154 155 155 154 151 136 105 68 40 11 354 350 345 343 346 346 346 345 344 343 343 343 343 344 345 346 346 344 341 338 334 332 329 323 320 320 318 316 315 314 313 312 310 307 304 304 302 299 304 307 306 307 308 307 305 305 303 304 306 303 301
184 182 180 178 176 175 174 173 173 173 173 173 173 171 170 170 169 168 167 165 163 160 158 159 158 158 160 158 151 130 101 58 17 358 349 348 347 345 347 348 346 346 346 344 343 344 344 345 346 346 345 343 339 336 335 332 329 324 320 318 315 312 312 310 309 308 307 304 301 300 300 300 303 306 306 306 306 304 303 303 302 303 302 299 294
184 182 180 178 177 176 176 175 175 175 175 174 173 171 171 171 169 169 168 166 165 162 161 161 160 159 163 163 153 133 104 32 359 351 348 348 348 348 348 347 347 347 346 345 344 345 346 345 344 344 342 341 339 339 337 333 330 326 322 319 317 316 314 311 307 305 302 300 297 297 300 301 301 301 303 304 303 301 301 301 301 301 299 297 296
184 183 181 180 179 178 178 178 177 176 175 174 173 173 172 171 169 170 170 168 167 165 164 163 163 163 167 171 164 152 108 358 350 346 348 348 346 347 346 345 347 347 346 347 346 346 347 345 342 341 340 341 342 341 337 332 329 326 323 321 319 319 318 316 314 312 308 303 298 297 300 301 300 300 303 304 302 300 301 300 300 299 298 297 296
185 185 183 181 182 181 180 179 178 176 175 175 174 173 172 171 170 171 171 170 170 168 167 166 166 167 168 175 181 179 337 349 350 347 348 349 346 345 343 343 346 347 346 347 347 346 347 344 341 340 340 342 342 338 333 331 328 325 324 323 321 321 320 319 318 316 313 309 304 302 303 303 303 304 306 307 306 304 304 303 301 300 298 297 296
187 186 185 184 184 184 182 181 179 177 176 176 174 173 173 172 172 172 172 172 171 170 169 168 169 171 168 174 193 220 348 348 351 352 349 345 342 341 342 343 345 345 346 348 348 347 347 344 342 340 339 340 339 334 331 330 327 326 325 323 323 322 321 321 321 318 315 312 309 307 306 307 308 308 309 311 310 310 310 307 305 303 299 297 297
189 188 187 187 186 186 185 183 181 179 177 177 175 174 174 174 174 174 174 173 172 171 171 169 169 173 172 173 191 285 346 352 353 352 349 344 341 341 342 343 344 345 347 349 347 346 346 344 342 338 337 339 338 334 333 331 328 327 324 322 322 321 322 325 327 324 321 317 313 311 311 311 311 312 312 313 315 316 312 305 304 306 304 301 303
191 191 190 189 188 187 187 185 183 181 179 178 176 175 175 176 175 175 175 176 173 171 171 170 170 172 175 175 176 303 340 357 356 350 349 346 342 342 342 342 344 346 348 348 346 345 344 342 341 339 338 338 337 334 334 333 329 326 324 322 321 320 322 327 328 326 324 322 319 319 320 319 319 318 317 318 320 319 312 306 313 319 317 315 313
194 193 192 191 189 188 188 187 186 183 180 179 177 176 176 177 176 175 175 177 175 172 171 171 169 166 168 176 172 6 350 356 352 346 348 348 344 342 341 343 346 347 347 346 344 344 342 341 343 342 338 335 334 334 334 332 328 325 324 322 318 317 321 325 325 324 323 323 323 323 324 324 324 323 322 322 323 323 319 320 328 328 321 314 311
196 195 193 192 190 189 189 188 187 184 182 179 178 178 178 178 177 175 175 176 175 172 169 169 169 164 162 171 184 349 347 347 345 344 348 349 346 342 342 347 349 346 344 343 340 340 340 340 342 342 336 333 333 332 332 331 327 324 323 320 315 316 321 324 323 322 321 321 322 322 323 324 324 325 325 325 326 325 324 326 327 324 317 311 307
196 195 194 192 191 190 189 188 187 185 182 180 179 179 180 179 178 177 176 175 173 170 168 167 167 165 161 163 187 325 335 340 342 346 349 350 348 345 347 352 351 343 339 339 337 337 338 338 340 339 335 332 332 331 330 330 328 325 321 318 316 319 322 322 321 321 321 320 321 321 322 323 324 325 327 328 327 325 324 325 325 323 319 312 305
196 195 193 191 190 189 188 187 186 184 182 182 181 180 179 179 179 179 177 175 171 169 169 168 169 166 161 157 212 307 324 337 343 347 350 350 351 351 350 351 349 341 337 336 336 336 336 336 337 335 332 331 331 331 330 330 330 328 325 323 323 324 324 323 321 321 322 322 321 321 323 324 325 326 328 328 327 327 326 326 327 327 324 319 311
194 192 191 190 189 188 187 186 186 184 183 184 184 182 180 179 180 180 179 176 172 169 167 169 172 170 166 172 218 272 308 330 340 347 352 351 352 354 353 350 348 343 338 335 334 334 334 334 333 331 330 331 332 332 332 331 332 332 330 329 329 329 329 328 327 325 324 324 323 322 323 326 328 328 328 328 328 328 328 328 330 331 330 330 326
191 190 190 188 187 187 186 185 185 186 186 186 185 184 182 182 181 180 180 178 175 171 169 171 174 173 175 190 209 230 288 320 336 344 351 355 356 355 352 349 349 345 338 334 333 332 332 331 329 328 331 333 333 333 335 336 336 335 334 333 334 335 335 333 332 330 328 327 325 324 326 329 329 328 328 328 328 328 330 332 335 336 335 335 333
190 189 188 188 187 187 186 185 186 188 188 188 188 188 186 185 183 181 181 182 180 176 173 174 176 177 177 183 192 206 255 312 345 352 354 358 0 358 351 349 352 349 340 336 335 331 328 327 327 332 337 338 338 340 342 341 339 337 337 338 339 340 339 336 334 333 331 329 328 326 327 329 329 328 328 329 329 331 335 337 339 339 340 339 337
189 188 188 188 187 186 185 186 187 189 190 190 191 192 191 188 187 185 183 184 185 183 180 178 177 176 174 177 183 185 195 292 349 359 360 360 0 358 354 354 356 352 343 340 336 329 327 332 337 342 345 345 345 347 346 343 343 344 345 346 344 343 341 338 337 336 333 330 329 328 327 328 329 331 333 333 334 336 339 339 338 339 342 341 339
188 188 188 187 187 187 187 187 188 189 191 191 192 193 193 192 191 190 188 188 188 187 185 183 181 178 173 175 180 181 185 282 354 1 4 2 357 355 356 357 355 351 347 345 339 332 335 346 352 354 354 352 352 350 347 346 349 350 351 350 347 343 341 338 336 335 332 330 329 329 329 331 332 334 336 337 337 338 341 342 339 339 342 344 347
189 189 189 188 188 189 189 190 190 190 191 192 193 194 195 195 196 196 197 197 196 194 192 189 188 187 181 176 177 180 178 61 11 3 0 358 352 351 356 356 350 346 347 343 336 337 348 359 3 2 0 357 354 352 350 351 352 351 349 347 344 343 342 340 338 336 335 334 333 332 332 334 335 337 338 338 339 341 345 346 343 341 345 354 6
191 191 191 190 190 190 191 192 192 192 193 193 194 195 197 199 199 198 198 199 200 201 199 194 191 193 188 180 178 178 162 62 22 360 347 344 346 351 353 349 343 343 347 343 338 346 0 6 5 2 359 356 354 352 350 351 351 349 347 345 343 343 344 343 341 339 339 338 338 337 336 336 337 338 339 339 340 343 346 348 347 347 352 8 22
192 193 193 192 192 192 192 192 193 193 194 193 192 191 193 196 197 197 197 196 195 198 201 198 196 195 190 184 180 176 169 126 38 352 330 328 342 350 346 342 343 343 344 346 349 358 7 11 7 2 358 356 354 352 350 350 348 345 344 344 344 344 344 343 342 340 338 339 340 339 338 338 338 338 340 339 339 343 348 351 351 355 6 19 25
194 195 196 195 195 194 193 194 193 193 194 194 191 187 184 186 190 196 196 191 189 194 198 197 194 191 191 190 185 180 181 175 172 264 308 314 330 338 335 338 347 345 345 352 1 10 16 15 8 2 359 358 355 351 349 349 346 342 341 341 343 344 343 342 342 339 337 339 342 341 341 341 339 338 339 339 339 342 349 354 358 7 19 27 29
199 198 198 198 197 196 196 196 195 194 193 192 191 187 183 180 182 190 191 183 183 192 196 196 194 190 190 190 187 187 185 175 184 236 278 291 300 316 335 332 336 346 351 356 7 19 23 18 10 4 1 358 354 349 348 346 344 342 341 338 338 341 341 340 340 339 338 340 342 342 342 342 340 338 339 341 342 344 349 357 3 13 24 32 36
205 203 202 200 199 199 198 198 198 197 195 193 191 191 190 186 184 184 180 174 184 198 200 200 199 194 190 191 192 189 184 182 202 235 255 271 281 296 15 318 330 353 3 7 18 27 27 19 12 6 0 356 352 348 346 346 344 342 340 336 335 337 338 340 341 341 340 340 341 342 343 342 340 340 340 343 345 347 351 357 3 13 27 32 33
209 209 207 204 202 201 201 201 200 199 198 197 196 196 198 197 193 187 179 176 187 200 203 203 201 194 191 195 194 186 183 191 208 220 235 256 274 311 44 233 325 14 18 22 27 27 24 18 12 5 360 356 352 348 346 346 344 341 338 336 336 337 340 343 344 342 340 341 342 342 343 343 341 341 342 344 346 349 354 359 4 16 30 33 31
212 214 213 210 206 205 204 203 202 200 199 200 201 201 201 201 200 196 191 191 195 198 199 200 198 193 193 195 191 183 184 195 201 204 231 257 277 323 245 236 72 44 33 33 31 26 22 17 9 4 360 355 352 350 348 347 346 342 339 338 339 341 343 344 344 342 341 342 341 341 343 343 342 342 344 345 347 350 355 359 4 16 30 34 36
214 216 217 215 212 210 208 205 204 203 203 203 204 205 204 203 202 201 200 201 200 198 196 195 193 192 194 195 191 185 184 192 196 200 223 249 272 266 259 326 53 53 46 42 36 31 27 18 8 4 0 354 352 353 350 348 346 343 342 341 342 343 344 345 344 343 343 343 341 341 343 344 343 343 345 346 347 350 353 357 4 16 30 38 44
217 218 219 219 216 214 212 210 208 207 206 206 205 205 205 205 204 203 201 201 200 197 194 193 192 192 193 193 193 191 189 191 195 201 216 232 245 256 303 43 60 60 54 48 39 32 28 19 8 3 358 353 353 352 350 349 348 345 344 345 345 345 345 345 344 345 345 345 344 344 344 344 343 343 344 345 347 348 350 352 358 10 21 36 58
222 221 222 222 219 216 214 213 210 208 207 207 206 205 204 203 202 202 201 199 197 195 195 195 194 192 191 191 192 192 191 192 196 204 214 223 228 234 33 61 65 60 54 48 36 27 23 16 6 0 355 352 352 351 350 350 349 347 347 347 346 346 347 347 348 349 348 347 347 347 345 343 343 343 343 343 344 345 345 344 346 352 0 17 74
226 225 225 225 223 220 217 215 212 209 207 206 206 204 203 200 199 199 198 196 195 195 195 195 194 193 192 191 191 191 189 190 196 206 214 221 226 225 223 55 55 53 50 44 30 19 14 8 2 358 354 350 349 348 349 349 348 348 348 346 346 348 350 350 351 350 349 348 348 348 346 343 342 343 343 342 342 341 338 334 331 326 320 318 120
229 228 227 226 225 223 220 217 213 210 208 207 205 203 201 200 199 198 197 197 196 196 196 196 196 195 193 192 195 196 193 191 197 206 213 222 231 232 238 309 17 34 36 31 21 9 1 358 357 354 352 350 347 345 346 346 347 348 349 347 347 347 349 351 351 349 348 348 348 347 345 343 342 343 343 342 340 338 333 325 317 310 297 238 149
233 230 228 227 226 224 220 218 215 213 210 209 207 204 203 203 202 200 199 199 199 198 198 199 198 196 194 194 197 198 195 194 200 208 212 218 229 238 252 285 328 360 8 8 5 356 348 347 348 347 347 347 344 342 343 344 344 346 348 349 348 347 347 350 351 349 348 348 348 347 346 344 341 341 342 340 337 333 328 321 312 302 273 208 171
236 233 230 228 225 222 220 219 217 215 213 212 210 208 207 206 205 204 203 202 201 200 200 199 197 196 196 196 196 199 200 200 203 209 214 219 229 240 252 270 291 314 330 337 341 338 334 334 336 338 340 341 339 338 340 341 341 342 344 346 345 344 345 347 350 350 350 348 348 348 347 344 340 339 340 340 336 329 323 318 310 293 247 210 192
239 236 233 229 226 224 222 221 219 217 216 215 214 212 210 209 208 207 206 203 202 201 201 199 196 196 197 195 195 201 207 207 206 211 217 222 230 240 250 263 275 285 296 306 313 315 316 318 321 325 329 332 332 332 334 336 338 339 340 340 340 340 340 343 347 350 350 348 348 348 347 345 342 340 339 339 335 324 316 312 304 282 244 221 211
242 237 234 231 229 227 226 225 223 222 220 218 216 214 213 212 211 209 206 204 203 202 202 201 198 197 197 197 199 205 210 210 210 214 219 223 229 238 248 258 266 270 275 283 290 295 300 303 307 312 318 321 321 323 325 328 330 332 334 335 335 336 337 339 342 346 347 346 346 347 347 346 344 341 340 338 332 320 310 304 296 277 248 229 222
243 239 235 232 230 229 229 228 226 224 221 218 216 215 213 213 211 209 207 205 204 203 202 201 200 200 200 202 206 209 211 212 214 217 222 226 231 236 245 254 261 264 268 273 278 283 289 292 296 302 308 311 312 313 315 318 321 323 326 328 329 332 336 337 338 341 343 344 344 345 345 345 345 343 341 338 331 318 305 297 289 276 254 238 229
245 241 237 234 231 230 229 228 226 224 220 218 216 214 211 210 209 208 207 207 207 206 204 203 203 204 205 207 211 212 212 214 219 224 228 232 234 239 246 253 259 263 267 271 275 280 284 286 290 295 300 303 306 307 308 311 313 314 317 320 321 327 335 337 335 337 339 341 342 343 343 343 344 344 342 339 332 320 306 294 286 276 260 246 236
247 243 239 237 234 233 231 227 224 221 219 217 214 211 209 209 210 210 211 211 210 209 207 206 207 209 209 209 213 215 215 219 224 229 234 236 238 242 248 253 258 263 267 270 274 279 283 284 286 290 294 298 300 301 303 305 307 308 312 314 314 319 329 333 331 333 336 337 337 338 339 339 341 343 344 341 335 324 309 295 285 275 262 249 240
247 243 240 238 235 234 232 227 223 220 217 215 213 212 213 214 214 214 213 211 210 210 210 210 211 212 213 213 215 217 219 224 229 232 235 237 239 243 248 253 257 262 266 269 273 278 282 284 285 288 291 294 297 298 299 301 302 303 306 308 310 313 320 324 325 327 331 331 332 334 335 335 337 339 342 341 336 326 313 298 287 277 263 252 242
248 244 241 238 235 233 231 228 225 223 221 219 217 216 215 215 215 214 213 212 213 213 213 213 213 214 215 216 218 220 223 227 231 233 235 237 239 242 246 251 256 260 265 269 273 276 280 282 285 289 292 295 297 298 299 299 300 300 301 303 306 308 312 315 318 321 325 326 327 329 330 331 332 335 339 339 336 329 318 303 291 279 266 255 244
250 246 242 239 237 235 233 231 229 227 225 222 219 217 215 215 216 216 215 215 216 217 217 217 217 217 218 219 221 223 226 229 232 234 235 236 238 241 245 248 251 256 262 267 270 274 279 283 287 293 297 298 299 300 300 300 300 299 299 300 302 304 307 309 311 314 318 321 323 325 325 326 327 329 332 334 336 332 322 309 297 283 269 259 249
251 248 244 242 239 237 235 233 230 228 225 223 220 218 217 218 219 219 218 219 220 221 222 222 222 221 222 224 226 227 229 232 234 235 235 235 237 239 242 245 247 251 255 259 266 272 279 286 293 298 300 302 304 304 304 303 302 301 299 299 300 302 304 304 304 307 311 314 317 319 321 322 322 323 325 328 329 328 322 312 301 288 274 265 255